Maple Lake, MN

3:54 PM CDT on March 25, 2017 (GMT -0500)
Maple Lake Municipal

Weather History for KMGG - October, 2013

Change the Weather History Date:

Monday, October 21, 2013

  Actual Average (KSTC) Record (KSTC)
Temperature  
Mean Temperature 34 °F -  
Max Temperature 39 °F 54 °F 87 °F (1947)
Min Temperature 28 °F 33 °F 11 °F (1913)
Degree Days  
Heating Degree Days 32    
Moisture  
Dew Point 25 °F    
Average Humidity 71    
Maximum Humidity 90    
Minimum Humidity 58    
Precipitation  
Precipitation 0.00 in - - ()
Sea Level Pressure  
Sea Level Pressure 29.94 in    
Wind  
Wind Speed 9 mph (WNW)    
Max Wind Speed 14 mph    
Max Gust Speed 22 mph    
Visibility 10 miles    
Events      
Averages and records for this station are not official NWS values.
T = Trace of Precipitation, MM = Missing Value Source: NWS Daily Summary

Daily Weather History Graph

Daily Weather History Graph

Search for Another Location

Airport or City:

Trip Planner

Search our weather history database for the weather conditions in past years. The results will help you decide how hot, cold, wet, or windy it might be!

Date:

Astronomy

Oct. 21, 2013 Rise Set
Actual Time 7:40 AM CDT 6:20 PM CDT
Civil Twilight 7:10 AM CDT 6:50 PM CDT
Nautical Twilight 6:35 AM CDT 7:24 PM CDT
Astronomical Twilight 6:01 AM CDT 7:58 PM CDT
Moon 8:06 PM CDT (10/21) 10:22 AM CDT (10/21)
Length of Visible Light 11h 39m
Length of Day
10h 39m
Waning Gibbous, 92% of the Moon is Illuminated
Oct 21
Waning Gibbous
Oct 26
Last Quarter
Nov 3
New
Nov 9
First Quarter
Nov 17
Full

Hourly Weather History & Observations

Time (CDT) Temp. Windchill Dew Point Humidity Pressure Visibility Wind Dir Wind Speed Gust Speed Precip Events Conditions
12:16 AM 34.2 °F 25.2 °F 28.2 °F 79% 29.91 in 10.0 mi NW 12.7 mph 16.1 mph N/A   Overcast
12:36 AM 33.8 °F 25.8 °F 27.5 °F 78% 29.91 in 10.0 mi NW 10.4 mph 17.3 mph N/A   Overcast
12:56 AM 33.4 °F 26.6 °F 27.1 °F 78% 29.92 in 10.0 mi WNW 8.1 mph - N/A   Overcast
1:16 AM 33.6 °F 26.8 °F 26.6 °F 75% 29.92 in 10.0 mi NW 8.1 mph - N/A   Overcast
1:36 AM 33.8 °F 28.6 °F 27.3 °F 77% 29.92 in 10.0 mi WNW 5.8 mph - N/A   Overcast
1:56 AM 34.0 °F 27.2 °F 27.0 °F 75% 29.93 in 10.0 mi WNW 8.1 mph - N/A   Overcast
2:16 AM 34.2 °F 26.8 °F 26.1 °F 72% 29.93 in 10.0 mi NW 9.2 mph - N/A   Overcast
2:36 AM 34.0 °F 28.8 °F 26.1 °F 73% 29.93 in 10.0 mi NW 5.8 mph - N/A   Overcast
2:56 AM 34.3 °F 27.0 °F 25.7 °F 71% 29.93 in 10.0 mi NW 9.2 mph - N/A   Overcast
3:16 AM 34.3 °F 27.0 °F 25.9 °F 71% 29.93 in 10.0 mi NW 9.2 mph - N/A   Overcast
3:36 AM 34.2 °F 25.7 °F 26.2 °F 73% 29.94 in 10.0 mi WNW 11.5 mph 16.1 mph N/A   Overcast
3:56 AM 34.0 °F 28.8 °F 26.2 °F 73% 29.94 in 10.0 mi NW 5.8 mph 10.4 mph N/A   Overcast
4:16 AM 33.8 °F 26.4 °F 24.3 °F 68% 29.94 in 10.0 mi NW 9.2 mph - N/A   Overcast
4:36 AM 33.4 °F 27.3 °F 24.3 °F 69% 29.94 in 10.0 mi NW 6.9 mph - N/A   Overcast
4:56 AM 33.3 °F 27.1 °F 23.9 °F 69% 29.94 in 10.0 mi NW 6.9 mph - N/A   Overcast
5:16 AM 33.1 °F 28.7 °F 25.0 °F 72% 29.94 in 10.0 mi NW 4.6 mph - N/A   Overcast
5:36 AM 33.3 °F 30.2 °F 25.5 °F 73% 29.94 in 10.0 mi NW 3.5 mph - N/A   Overcast
5:56 AM 33.4 °F 25.4 °F 24.6 °F 70% 29.94 in 10.0 mi WNW 10.4 mph - N/A   Overcast
6:16 AM 33.3 °F 27.1 °F 25.5 °F 73% 29.94 in 10.0 mi WNW 6.9 mph - N/A   Overcast
6:36 AM 33.3 °F 26.4 °F 25.0 °F 72% 29.94 in 10.0 mi NW 8.1 mph - N/A   Overcast
6:56 AM 33.1 °F 28.7 °F 25.7 °F 74% 29.94 in 10.0 mi NW 4.6 mph - N/A   Overcast
7:16 AM 33.1 °F 27.7 °F 25.9 °F 75% 29.94 in 10.0 mi WNW 5.8 mph - N/A   Overcast
7:36 AM 33.3 °F 27.9 °F 26.6 °F 77% 29.94 in 10.0 mi West 5.8 mph - N/A   Overcast
7:56 AM 33.3 °F 25.7 °F 27.0 °F 78% 29.95 in 10.0 mi West 9.2 mph - N/A   Overcast
8:17 AM 33.3 °F 25.7 °F 26.2 °F 75% 29.95 in 10.0 mi West 9.2 mph 19.6 mph N/A   Overcast
8:36 AM 33.3 °F 23.7 °F 25.5 °F 73% 29.95 in 10.0 mi West 13.8 mph 19.6 mph N/A   Overcast
8:56 AM 33.4 °F 24.8 °F 23.5 °F 67% 29.95 in 10.0 mi West 11.5 mph 17.3 mph N/A   Overcast
9:17 AM 33.8 °F 25.8 °F 23.7 °F 67% 29.95 in 10.0 mi WNW 10.4 mph - N/A   Overcast
9:36 AM 33.8 °F 26.4 °F 23.7 °F 67% 29.96 in 10.0 mi WNW 9.2 mph - N/A   Overcast
9:56 AM 34.0 °F 26.6 °F 22.6 °F 63% 29.96 in 10.0 mi WNW 9.2 mph 17.3 mph N/A   Overcast
10:16 AM 34.0 °F 26.6 °F 23.9 °F 67% 29.95 in 10.0 mi West 9.2 mph 17.3 mph N/A   Overcast
10:36 AM 34.3 °F 25.5 °F 23.9 °F 66% 29.95 in 10.0 mi West 12.7 mph 19.6 mph N/A   Overcast
10:56 AM 34.3 °F 25.9 °F 23.7 °F 65% 29.95 in 10.0 mi West 11.5 mph 16.1 mph N/A   Overcast
11:16 AM 34.7 °F 25.9 °F 24.4 °F 66% 29.95 in 10.0 mi West 12.7 mph 17.3 mph N/A   Overcast
11:37 AM 34.3 °F 26.5 °F 23.7 °F 65% 29.95 in 10.0 mi WNW 10.4 mph 18.4 mph N/A   Overcast
11:56 AM 34.7 °F 25.9 °F 23.7 °F 64% 29.95 in 10.0 mi West 12.7 mph 16.1 mph N/A   Overcast
12:16 PM 34.7 °F 27.5 °F 23.5 °F 64% 29.95 in 10.0 mi West 9.2 mph 21.9 mph N/A   Overcast
12:36 PM 34.9 °F 26.2 °F 24.1 °F 65% 29.95 in 10.0 mi WNW 12.7 mph 18.4 mph N/A   Overcast
12:56 PM 35.1 °F 26.4 °F 23.2 °F 62% 29.95 in 10.0 mi West 12.7 mph 18.4 mph N/A   Overcast
1:16 PM 36.0 °F 27.5 °F 23.0 °F 59% 29.95 in 10.0 mi West 12.7 mph 19.6 mph N/A   Overcast
1:36 PM 36.5 °F 29.2 °F 23.7 °F 60% 29.94 in 10.0 mi WNW 10.4 mph 18.4 mph N/A   Overcast
1:57 PM 36.7 °F 29.4 °F 24.1 °F 60% 29.93 in 10.0 mi West 10.4 mph 18.4 mph N/A   Overcast
2:16 PM 37.2 °F 28.7 °F 24.8 °F 61% 29.93 in 10.0 mi WNW 13.8 mph 20.7 mph N/A   Overcast
2:36 PM 37.0 °F 28.5 °F 24.3 °F 60% 29.93 in 10.0 mi WNW 13.8 mph 20.7 mph N/A   Overcast
2:56 PM 37.6 °F 29.6 °F 25.2 °F 61% 29.93 in 10.0 mi WNW 12.7 mph 21.9 mph N/A   Overcast
3:16 PM 38.3 °F 30.1 °F 25.0 °F 59% 29.93 in 10.0 mi West 13.8 mph 20.7 mph N/A   Mostly Cloudy
3:36 PM 39.4 °F 31.8 °F 26.1 °F 59% 29.93 in 10.0 mi WNW 12.7 mph - N/A   Mostly Cloudy
3:56 PM 37.9 °F 30.0 °F 24.8 °F 59% 29.93 in 10.0 mi WNW 12.7 mph 21.9 mph N/A   Scattered Clouds
4:16 PM 38.1 °F 31.2 °F 25.5 °F 61% 29.93 in 10.0 mi WNW 10.4 mph 18.4 mph N/A   Scattered Clouds
4:36 PM 38.7 °F 32.4 °F 25.2 °F 58% 29.94 in 10.0 mi WNW 9.2 mph 19.6 mph N/A   Scattered Clouds
4:56 PM 38.3 °F 31.4 °F 25.3 °F 60% 29.94 in 10.0 mi West 10.4 mph 17.3 mph N/A   Mostly Cloudy
5:16 PM 38.3 °F 31.9 °F 25.5 °F 60% 29.94 in 10.0 mi West 9.2 mph 18.4 mph N/A   Mostly Cloudy
5:36 PM 38.1 °F 31.7 °F 25.3 °F 60% 29.94 in 10.0 mi West 9.2 mph 18.4 mph N/A   Overcast
5:56 PM 36.5 °F 29.7 °F 25.3 °F 64% 29.95 in 10.0 mi WNW 9.2 mph - N/A   Scattered Clouds
6:16 PM 36.1 °F 28.7 °F 25.3 °F 65% 29.95 in 10.0 mi WNW 10.4 mph - N/A   Clear
6:37 PM 35.6 °F 29.9 °F 25.2 °F 66% 29.95 in 10.0 mi WNW 6.9 mph - N/A   Clear
6:56 PM 34.3 °F 30.2 °F 25.7 °F 71% 29.95 in 10.0 mi WNW 4.6 mph - N/A   Clear
7:16 PM 33.8 °F 30.8 °F 25.7 °F 72% 29.95 in 10.0 mi WNW 3.5 mph - N/A   Scattered Clouds
7:36 PM 32.9 °F 29.8 °F 26.4 °F 77% 29.95 in 10.0 mi West 3.5 mph - N/A   Scattered Clouds
7:56 PM 32.9 °F 29.8 °F 25.7 °F 75% 29.95 in 10.0 mi West 3.5 mph - N/A   Clear
8:16 PM 32.5 °F - 25.7 °F 76% 29.95 in 10.0 mi Calm Calm - N/A   Clear
8:36 PM 32.5 °F - 25.7 °F 76% 29.95 in 10.0 mi Calm Calm - N/A   Clear
8:57 PM 32.0 °F - 26.2 °F 79% 29.95 in 10.0 mi Calm Calm - N/A   Clear
9:16 PM 32.0 °F 28.7 °F 26.4 °F 80% 29.96 in 10.0 mi West 3.5 mph - N/A   Clear
9:36 PM 30.4 °F 26.9 °F 26.2 °F 85% 29.96 in 10.0 mi West 3.5 mph - N/A   Clear
9:56 PM 30.2 °F 26.7 °F 26.4 °F 86% 29.96 in 10.0 mi West 3.5 mph - N/A   Clear
10:16 PM 30.2 °F 26.7 °F 26.4 °F 86% 29.96 in 10.0 mi WNW 3.5 mph - N/A   Clear
10:36 PM 30.0 °F - 26.6 °F 87% 29.95 in 10.0 mi Calm Calm - N/A   Clear
10:56 PM 29.5 °F - 26.6 °F 89% 29.95 in 10.0 mi Calm Calm - N/A   Clear
11:17 PM 28.9 °F - 26.2 °F 90% 29.95 in 10.0 mi Calm Calm - N/A   Clear
11:36 PM 28.9 °F - 25.9 °F 88% 29.96 in 10.0 mi Calm Calm - N/A   Clear
11:56 PM 28.0 °F 24.2 °F 25.2 °F 89% 29.96 in 10.0 mi West 3.5 mph - N/A   Clear